Time,TemperatureF,DewpointF,PressureIn,WindDirection,WindDirectionDegrees,WindSpeedMPH,WindSpeedGustMPH,Humidity,HourlyPrecipIn,Conditions,Clouds,dailyrainin,SoftwareType,DateUTC
2013-05-31 00:00:00,72.7,44.9,29.26,East,84,0.0,0.0,37,0.00,,---,0.00,VWS V14.01,2013-05-31 04:00:00,
2013-05-31 00:01:00,72.7,44.9,29.26,East,84,0.0,0.0,37,0.00,,---,0.00,VWS V14.01,2013-05-31 04:01:00,
2013-05-31 00:02:00,72.7,44.9,29.26,East,84,0.0,0.0,37,0.00,,---,0.00,VWS V14.01,2013-05-31 04:02:00,
2013-05-31 00:03:00,72.7,44.9,29.26,East,84,0.0,0.0,37,0.00,,---,0.00,VWS V14.01,2013-05-31 04:03:00,
2013-05-31 00:05:00,72.7,44.9,29.26,East,84,0.0,0.0,37,0.00,,---,0.00,VWS V14.01,2013-05-31 04:05:00,
2013-05-31 00:10:00,72.7,44.9,29.26,East,84,0.0,0.0,37,0.00,,---,0.00,VWS V14.01,2013-05-31 04:10:00,
2013-05-31 00:15:00,72.5,44.8,29.26,East,84,0.0,0.0,37,0.00,,---,0.00,VWS V14.01,2013-05-31 04:15:00,
2013-05-31 00:20:00,72.3,44.6,29.26,East,84,0.0,0.0,37,0.00,,---,0.00,VWS V14.01,2013-05-31 04:20:00,
2013-05-31 00:25:00,72.3,45.3,29.26,East,84,0.0,0.0,38,0.00,,---,0.00,VWS V14.01,2013-05-31 04:25:00,
2013-05-31 00:30:00,72.1,45.2,29.26,East,84,0.0,0.0,38,0.00,,---,0.00,VWS V14.01,2013-05-31 04:30:00,
2013-05-31 00:36:00,71.8,45.5,29.26,East,84,0.0,0.0,39,0.00,,---,0.00,VWS V14.01,2013-05-31 04:36:00,
2013-05-31 00:41:00,71.6,45.4,29.26,East,84,0.0,0.0,39,0.00,,---,0.00,VWS V14.01,2013-05-31 04:41:00,
2013-05-31 00:46:00,71.4,45.9,29.29,East,84,0.0,0.0,40,0.00,,---,0.00,VWS V14.01,2013-05-31 04:46:00,
2013-05-31 00:51:00,71.2,46.4,29.29,East,84,0.0,0.0,41,0.00,,---,0.00,VWS V14.01,2013-05-31 04:51:00,
2013-05-31 00:56:00,71.2,47.0,29.29,East,84,0.0,0.0,42,0.00,,---,0.00,VWS V14.01,2013-05-31 04:56:00,
2013-05-31 01:01:00,71.2,47.0,29.29,East,84,0.0,0.0,42,0.00,,---,0.00,VWS V14.01,2013-05-31 05:01:00,
2013-05-31 01:06:00,71.2,47.0,29.29,East,84,0.0,0.0,42,0.00,,---,0.00,VWS V14.01,2013-05-31 05:06:00,
2013-05-31 01:11:00,71.4,46.5,29.29,East,84,0.0,0.0,41,0.00,,---,0.00,VWS V14.01,2013-05-31 05:11:00,
2013-05-31 01:16:00,71.4,46.5,29.29,East,84,0.0,0.0,41,0.00,,---,0.00,VWS V14.01,2013-05-31 05:16:00,
2013-05-31 01:21:00,71.4,46.5,29.29,East,84,0.0,0.0,41,0.00,,---,0.00,VWS V14.01,2013-05-31 05:21:00,
2013-05-31 01:26:00,71.6,46.7,29.29,East,84,0.0,0.0,41,0.00,,---,0.00,VWS V14.01,2013-05-31 05:26:00,
2013-05-31 01:31:00,71.6,46.0,29.29,East,84,0.0,0.0,40,0.00,,---,0.00,VWS V14.01,2013-05-31 05:31:00,
2013-05-31 01:36:00,71.6,46.0,29.29,East,84,0.0,0.0,40,0.00,,---,0.00,VWS V14.01,2013-05-31 05:36:00,
2013-05-31 01:42:00,71.6,45.4,29.29,East,84,0.0,0.0,39,0.00,,---,0.00,VWS V14.01,2013-05-31 05:42:00,
2013-05-31 01:47:00,71.6,45.4,29.29,East,84,0.0,0.0,39,0.00,,---,0.00,VWS V14.01,2013-05-31 05:47:00,
2013-05-31 01:52:00,71.4,45.2,29.29,East,84,0.0,0.0,39,0.00,,---,0.00,VWS V14.01,2013-05-31 05:52:00,
2013-05-31 01:57:00,71.2,45.0,29.29,East,84,0.0,0.0,39,0.00,,---,0.00,VWS V14.01,2013-05-31 05:57:00,
2013-05-31 02:02:00,71.2,45.7,29.29,East,84,0.0,0.0,40,0.00,,---,0.00,VWS V14.01,2013-05-31 06:02:00,
2013-05-31 02:07:00,71.1,45.5,29.29,East,84,0.0,0.0,40,0.00,,---,0.00,VWS V14.01,2013-05-31 06:07:00,
2013-05-31 02:13:00,70.9,46.0,29.29,East,84,0.0,0.0,41,0.00,,---,0.00,VWS V14.01,2013-05-31 06:13:00,
2013-05-31 02:18:00,70.9,46.0,29.29,East,84,0.0,0.0,41,0.00,,---,0.00,VWS V14.01,2013-05-31 06:18:00,
2013-05-31 02:23:00,70.7,45.9,29.29,East,84,0.0,0.0,41,0.00,,---,0.00,VWS V14.01,2013-05-31 06:23:00,
2013-05-31 02:28:00,70.7,46.5,29.29,East,84,0.0,0.0,42,0.00,,---,0.00,VWS V14.01,2013-05-31 06:28:00,
2013-05-31 02:33:00,70.5,46.3,29.29,East,84,0.0,0.0,42,0.00,,---,0.00,VWS V14.01,2013-05-31 06:33:00,
2013-05-31 02:38:00,70.3,46.2,29.29,East,84,0.0,0.0,42,0.00,,---,0.00,VWS V14.01,2013-05-31 06:38:00,
2013-05-31 02:43:00,70.3,46.8,29.29,East,84,0.0,0.0,43,0.00,,---,0.00,VWS V14.01,2013-05-31 06:43:00,
2013-05-31 02:48:00,70.3,46.8,29.29,East,84,0.0,0.0,43,0.00,,---,0.00,VWS V14.01,2013-05-31 06:48:00,
2013-05-31 02:53:00,70.3,46.8,29.29,East,84,0.0,0.0,43,0.00,,---,0.00,VWS V14.01,2013-05-31 06:53:00,
2013-05-31 02:58:00,70.3,46.8,29.29,East,84,0.0,0.0,43,0.00,,---,0.00,VWS V14.01,2013-05-31 06:58:00,
2013-05-31 03:03:00,70.5,47.6,29.29,East,84,0.0,0.0,44,0.00,,---,0.00,VWS V14.01,2013-05-31 07:03:00,
2013-05-31 03:08:00,70.5,47.0,29.29,East,84,0.0,0.0,43,0.00,,---,0.00,VWS V14.01,2013-05-31 07:08:00,
2013-05-31 03:13:00,70.7,47.1,29.29,East,84,0.0,0.0,43,0.00,,---,0.00,VWS V14.01,2013-05-31 07:13:00,
2013-05-31 03:18:00,70.7,47.1,29.29,East,84,0.0,0.0,43,0.00,,---,0.00,VWS V14.01,2013-05-31 07:18:00,
2013-05-31 03:23:00,70.7,47.1,29.29,East,84,0.0,0.0,43,0.00,,---,0.00,VWS V14.01,2013-05-31 07:23:00,
2013-05-31 03:28:00,70.7,47.1,29.29,East,84,0.0,0.0,43,0.00,,---,0.00,VWS V14.01,2013-05-31 07:28:00,
2013-05-31 03:33:00,70.7,47.1,29.26,East,84,0.0,0.0,43,0.00,,---,0.00,VWS V14.01,2013-05-31 07:33:00,
2013-05-31 03:39:00,70.7,47.1,29.26,East,84,0.0,0.0,43,0.00,,---,0.00,VWS V14.01,2013-05-31 07:39:00,
2013-05-31 03:44:00,70.9,47.3,29.26,East,84,0.0,0.0,43,0.00,,---,0.00,VWS V14.01,2013-05-31 07:44:00,
2013-05-31 03:49:00,70.9,47.3,29.26,East,84,0.0,0.0,43,0.00,,---,0.00,VWS V14.01,2013-05-31 07:49:00,
2013-05-31 03:54:00,70.7,47.1,29.26,East,84,0.0,0.0,43,0.00,,---,0.00,VWS V14.01,2013-05-31 07:54:00,
2013-05-31 03:59:00,70.7,47.1,29.26,East,84,0.0,0.0,43,0.00,,---,0.00,VWS V14.01,2013-05-31 07:59:00,
2013-05-31 04:04:00,70.7,47.7,29.26,East,84,0.0,0.0,44,0.00,,---,0.00,VWS V14.01,2013-05-31 08:04:00,
2013-05-31 04:09:00,70.5,47.6,29.26,East,84,0.0,0.0,44,0.00,,---,0.00,VWS V14.01,2013-05-31 08:09:00,
2013-05-31 04:14:00,70.3,47.4,29.26,East,84,0.0,0.0,44,0.00,,---,0.00,VWS V14.01,2013-05-31 08:14:00,
2013-05-31 04:19:00,70.3,48.0,29.26,East,84,0.0,0.0,45,0.00,,---,0.00,VWS V14.01,2013-05-31 08:19:00,
2013-05-31 04:24:00,70.2,47.8,29.26,East,84,0.0,0.0,45,0.00,,---,0.00,VWS V14.01,2013-05-31 08:24:00,
2013-05-31 04:29:00,69.8,47.5,29.26,East,84,0.0,0.0,45,0.00,,---,0.00,VWS V14.01,2013-05-31 08:29:00,
2013-05-31 04:34:00,69.4,47.2,29.29,East,84,0.0,0.0,45,0.00,,---,0.00,VWS V14.01,2013-05-31 08:34:00,
2013-05-31 04:39:00,69.3,47.6,29.29,East,84,0.0,0.0,46,0.00,,---,0.00,VWS V14.01,2013-05-31 08:39:00,
2013-05-31 04:44:00,69.1,48.0,29.29,East,84,0.0,0.0,47,0.00,,---,0.00,VWS V14.01,2013-05-31 08:44:00,
2013-05-31 04:49:00,69.1,49.1,29.29,East,84,0.0,0.0,49,0.00,,---,0.00,VWS V14.01,2013-05-31 08:49:00,
2013-05-31 04:54:00,69.1,50.2,29.29,East,84,0.0,0.0,51,0.00,,---,0.00,VWS V14.01,2013-05-31 08:54:00,
2013-05-31 04:59:00,69.1,51.2,29.29,East,84,0.0,0.0,53,0.00,,---,0.00,VWS V14.01,2013-05-31 08:59:00,
2013-05-31 05:04:00,68.9,52.1,29.29,East,84,0.0,0.0,55,0.00,,---,0.00,VWS V14.01,2013-05-31 09:04:00,
2013-05-31 05:09:00,68.9,52.6,29.29,East,84,0.0,0.0,56,0.00,,---,0.00,VWS V14.01,2013-05-31 09:09:00,
2013-05-31 05:14:00,68.9,52.6,29.29,East,84,0.0,0.0,56,0.00,,---,0.00,VWS V14.01,2013-05-31 09:14:00,
2013-05-31 05:19:00,68.9,53.1,29.29,East,84,0.0,0.0,57,0.00,,---,0.00,VWS V14.01,2013-05-31 09:19:00,
2013-05-31 05:24:00,68.7,52.9,29.29,East,84,0.0,0.0,57,0.00,,---,0.00,VWS V14.01,2013-05-31 09:24:00,
2013-05-31 05:30:00,68.5,53.2,29.29,East,84,0.0,0.0,58,0.00,,---,0.00,VWS V14.01,2013-05-31 09:30:00,
2013-05-31 05:35:00,68.2,52.9,29.29,East,84,0.0,0.0,58,0.00,,---,0.00,VWS V14.01,2013-05-31 09:35:00,
2013-05-31 05:40:00,68.0,53.2,29.29,East,84,0.0,0.0,59,0.00,,---,0.00,VWS V14.01,2013-05-31 09:40:00,
2013-05-31 05:45:00,67.8,53.4,29.29,East,84,0.0,0.0,60,0.00,,---,0.00,VWS V14.01,2013-05-31 09:45:00,
2013-05-31 05:50:00,67.6,53.7,29.29,East,84,0.0,0.0,61,0.00,,---,0.00,VWS V14.01,2013-05-31 09:50:00,
2013-05-31 05:56:00,67.5,54.0,29.29,East,84,0.0,0.0,62,0.00,,---,0.00,VWS V14.01,2013-05-31 09:56:00,
2013-05-31 06:01:00,67.6,54.6,29.29,East,84,0.0,0.0,63,0.00,,---,0.00,VWS V14.01,2013-05-31 10:01:00,
2013-05-31 06:06:00,67.6,55.0,29.29,East,84,0.0,0.0,64,0.00,,---,0.00,VWS V14.01,2013-05-31 10:06:00,
2013-05-31 06:11:00,67.8,55.2,29.29,East,84,0.0,0.0,64,0.00,,---,0.00,VWS V14.01,2013-05-31 10:11:00,
2013-05-31 06:16:00,68.0,55.8,29.29,East,84,0.0,0.0,65,0.00,,---,0.00,VWS V14.01,2013-05-31 10:16:00,
2013-05-31 06:21:00,68.2,56.4,29.29,East,84,0.0,0.0,66,0.00,,---,0.00,VWS V14.01,2013-05-31 10:21:00,
2013-05-31 06:26:00,68.4,56.6,29.29,East,84,0.0,0.0,66,0.00,,---,0.00,VWS V14.01,2013-05-31 10:26:00,
2013-05-31 06:31:00,68.5,57.2,29.29,East,84,0.0,0.0,67,0.00,,---,0.00,VWS V14.01,2013-05-31 10:31:00,
2013-05-31 06:36:00,68.7,57.3,29.29,East,84,0.0,0.0,67,0.00,,---,0.00,VWS V14.01,2013-05-31 10:36:00,
2013-05-31 06:41:00,69.1,58.1,29.29,East,84,0.0,0.0,68,0.00,,---,0.00,VWS V14.01,2013-05-31 10:41:00,
2013-05-31 06:46:00,69.3,58.3,29.29,East,84,0.0,0.0,68,0.00,,---,0.00,VWS V14.01,2013-05-31 10:46:00,
2013-05-31 06:51:00,69.6,59.0,29.29,East,84,0.0,0.0,69,0.00,,---,0.00,VWS V14.01,2013-05-31 10:51:00,
2013-05-31 06:56:00,70.0,59.3,29.29,East,84,0.0,0.0,69,0.00,,---,0.00,VWS V14.01,2013-05-31 10:56:00,
2013-05-31 07:01:00,70.2,59.9,29.29,East,84,0.0,0.0,70,0.00,,---,0.00,VWS V14.01,2013-05-31 11:01:00,
2013-05-31 07:06:00,70.5,60.3,29.29,East,84,0.0,0.0,70,0.00,,---,0.00,VWS V14.01,2013-05-31 11:06:00,
2013-05-31 07:11:00,71.1,60.8,29.29,East,84,0.0,0.0,70,0.00,,---,0.00,VWS V14.01,2013-05-31 11:11:00,
2013-05-31 07:16:00,71.6,61.3,29.29,East,85,0.0,0.0,70,0.00,,---,0.00,VWS V14.01,2013-05-31 11:16:00,
2013-05-31 07:21:00,72.0,61.7,29.29,East,84,0.0,0.0,70,0.00,,---,0.00,VWS V14.01,2013-05-31 11:21:00,
2013-05-31 07:26:00,72.5,61.8,29.29,East,84,0.0,0.0,69,0.00,,---,0.00,VWS V14.01,2013-05-31 11:26:00,
2013-05-31 07:31:00,72.9,61.7,29.32,East,84,0.0,0.0,68,0.00,,---,0.00,VWS V14.01,2013-05-31 11:31:00,
2013-05-31 07:36:00,73.4,60.9,29.32,East,84,0.0,0.0,65,0.00,,---,0.00,VWS V14.01,2013-05-31 11:36:00,
2013-05-31 07:41:00,73.8,58.5,29.32,ESE,106,0.0,0.0,59,0.00,,---,0.00,VWS V14.01,2013-05-31 11:41:00,
2013-05-31 07:46:00,74.5,56.8,29.29,ESE,106,0.0,0.0,54,0.00,,---,0.00,VWS V14.01,2013-05-31 11:46:00,
2013-05-31 07:51:00,75.0,55.1,29.29,ESE,106,0.0,0.0,50,0.00,,---,0.00,VWS V14.01,2013-05-31 11:51:00,
2013-05-31 07:56:00,75.4,53.2,29.29,ESE,106,0.0,0.0,46,0.00,,---,0.00,VWS V14.01,2013-05-31 11:56:00,
2013-05-31 08:01:00,75.7,52.9,29.29,ESE,106,0.0,0.0,45,0.00,,---,0.00,VWS V14.01,2013-05-31 12:01:00,
2013-05-31 08:06:00,76.3,52.2,29.29,ESE,106,0.0,0.0,43,0.00,,---,0.00,VWS V14.01,2013-05-31 12:06:00,
2013-05-31 08:11:00,76.8,52.0,29.29,ESE,106,0.0,0.0,42,0.00,,---,0.00,VWS V14.01,2013-05-31 12:11:00,
2013-05-31 08:16:00,77.0,50.9,29.29,ESE,106,0.0,0.0,40,0.00,,---,0.00,VWS V14.01,2013-05-31 12:16:00,
2013-05-31 08:21:00,77.5,51.3,29.29,ESE,106,0.0,0.0,40,0.00,,---,0.00,VWS V14.01,2013-05-31 12:21:00,
2013-05-31 08:27:00,77.9,50.3,29.29,ESE,106,0.0,0.0,38,0.00,,---,0.00,VWS V14.01,2013-05-31 12:27:00,
2013-05-31 08:32:00,78.4,49.3,29.29,ESE,106,0.0,0.0,36,0.00,,---,0.00,VWS V14.01,2013-05-31 12:32:00,
2013-05-31 08:37:00,78.8,51.8,29.29,ESE,106,0.0,0.0,39,0.00,,---,0.00,VWS V14.01,2013-05-31 12:37:00,
2013-05-31 08:42:00,79.2,49.2,29.29,ESE,106,0.0,0.0,35,0.00,,---,0.00,VWS V14.01,2013-05-31 12:42:00,
2013-05-31 08:48:00,79.7,49.7,29.32,ESE,105,0.0,0.0,35,0.00,,---,0.00,VWS V14.01,2013-05-31 12:48:00,
2013-05-31 08:53:00,80.1,47.6,29.32,East,101,0.0,0.0,32,0.00,,---,0.00,VWS V14.01,2013-05-31 12:53:00,
2013-05-31 08:58:00,80.4,48.7,29.32,ESE,110,0.0,0.0,33,0.00,,---,0.00,VWS V14.01,2013-05-31 12:58:00,
2013-05-31 09:03:00,80.6,46.3,29.29,NE,50,0.0,0.0,30,0.00,,---,0.00,VWS V14.01,2013-05-31 13:03:00,
2013-05-31 09:08:00,81.0,47.5,29.29,NE,50,0.0,0.0,31,0.00,,---,0.00,VWS V14.01,2013-05-31 13:08:00,
2013-05-31 09:13:00,81.5,48.0,29.29,NE,50,0.0,0.0,31,0.00,,---,0.00,VWS V14.01,2013-05-31 13:13:00,
2013-05-31 09:18:00,82.0,49.3,29.29,NE,50,0.0,0.0,32,0.00,,---,0.00,VWS V14.01,2013-05-31 13:18:00,
2013-05-31 09:23:00,82.4,49.6,29.29,NE,50,0.0,0.0,32,0.00,,---,0.00,VWS V14.01,2013-05-31 13:23:00,
2013-05-31 09:29:00,82.8,47.3,29.29,NE,47,0.0,0.0,29,0.00,,---,0.00,VWS V14.01,2013-05-31 13:29:00,
2013-05-31 09:35:00,83.3,48.7,29.29,ENE,64,0.0,0.0,30,0.00,,---,0.00,VWS V14.01,2013-05-31 13:35:00,
2013-05-31 09:40:00,83.7,48.1,29.29,ENE,63,0.0,0.0,29,0.00,,---,0.00,VWS V14.01,2013-05-31 13:40:00,
2013-05-31 09:45:00,84.0,48.4,29.29,NE,54,0.0,0.0,29,0.00,,---,0.00,VWS V14.01,2013-05-31 13:45:00,
2013-05-31 09:50:00,84.7,48.1,29.29,ENE,71,0.0,0.0,28,0.00,,---,0.00,VWS V14.01,2013-05-31 13:50:00,
2013-05-31 09:55:00,84.9,47.2,29.29,ENE,72,0.0,0.0,27,0.00,,---,0.00,VWS V14.01,2013-05-31 13:55:00,
2013-05-31 10:00:00,85.3,48.5,29.29,ENE,65,0.0,0.0,28,0.00,,---,0.00,VWS V14.01,2013-05-31 14:00:00,
2013-05-31 10:05:00,85.6,45.8,29.29,ENE,65,0.0,0.0,25,0.00,,---,0.00,VWS V14.01,2013-05-31 14:05:00,
2013-05-31 10:10:00,86.0,47.2,29.29,NE,51,0.0,0.0,26,0.00,,---,0.00,VWS V14.01,2013-05-31 14:10:00,
2013-05-31 10:15:00,86.2,42.9,29.29,East,91,0.0,2.7,22,0.00,,---,0.00,VWS V14.01,2013-05-31 14:15:00,
2013-05-31 10:21:00,86.7,44.5,29.29,NNE,17,0.0,0.0,23,0.00,,---,0.00,VWS V14.01,2013-05-31 14:21:00,
2013-05-31 10:26:00,87.1,42.5,29.29,ENE,59,0.0,0.0,21,0.00,,---,0.00,VWS V14.01,2013-05-31 14:26:00,
2013-05-31 10:31:00,87.3,41.3,29.29,ENE,59,0.0,0.0,20,0.00,,---,0.00,VWS V14.01,2013-05-31 14:31:00,
2013-05-31 10:36:00,87.6,42.9,29.29,NE,47,0.0,0.0,21,0.00,,---,0.00,VWS V14.01,2013-05-31 14:36:00,
2013-05-31 10:41:00,88.2,42.1,29.29,ENE,78,0.0,0.0,20,0.00,,---,0.00,VWS V14.01,2013-05-31 14:41:00,
2013-05-31 10:46:00,88.7,41.2,29.29,ESE,117,0.0,0.0,19,0.00,,---,0.00,VWS V14.01,2013-05-31 14:46:00,
2013-05-31 10:52:00,89.4,41.8,29.29,SE,141,0.0,0.0,19,0.00,,---,0.00,VWS V14.01,2013-05-31 14:52:00,
2013-05-31 10:57:00,89.4,40.4,29.29,SE,126,0.0,0.0,18,0.00,,---,0.00,VWS V14.01,2013-05-31 14:57:00,
2013-05-31 11:02:00,89.8,40.7,29.29,SE,127,0.0,0.0,18,0.00,,---,0.00,VWS V14.01,2013-05-31 15:02:00,
2013-05-31 11:07:00,90.1,41.0,29.29,ENE,72,0.0,0.0,18,0.00,,---,0.00,VWS V14.01,2013-05-31 15:07:00,
2013-05-31 11:12:00,90.1,41.0,29.29,NE,34,0.0,0.0,18,0.00,,---,0.00,VWS V14.01,2013-05-31 15:12:00,
2013-05-31 11:17:00,90.5,41.3,29.29,ENE,62,0.0,0.0,18,0.00,,---,0.00,VWS V14.01,2013-05-31 15:17:00,
2013-05-31 11:22:00,91.0,41.7,29.29,East,101,0.0,0.0,18,0.00,,---,0.00,VWS V14.01,2013-05-31 15:22:00,
2013-05-31 11:27:00,90.9,40.1,29.29,ENE,58,0.0,0.0,17,0.00,,---,0.00,VWS V14.01,2013-05-31 15:27:00,
2013-05-31 11:32:00,91.2,40.4,29.29,ESE,111,0.0,0.0,17,0.00,,---,0.00,VWS V14.01,2013-05-31 15:32:00,
2013-05-31 11:37:00,91.4,40.5,29.29,ESE,115,0.0,0.0,17,0.00,,---,0.00,VWS V14.01,2013-05-31 15:37:00,
2013-05-31 11:42:00,91.2,40.4,29.29,ENE,64,0.0,0.0,17,0.00,,---,0.00,VWS V14.01,2013-05-31 15:42:00,
2013-05-31 11:47:00,91.6,40.7,29.26,SE,124,0.0,3.1,17,0.00,,---,0.00,VWS V14.01,2013-05-31 15:47:00,
2013-05-31 11:52:00,91.8,40.8,29.26,East,95,0.0,0.0,17,0.00,,---,0.00,VWS V14.01,2013-05-31 15:52:00,
2013-05-31 11:57:00,91.6,40.7,29.26,East,94,0.0,3.1,17,0.00,,---,0.00,VWS V14.01,2013-05-31 15:57:00,
2013-05-31 12:02:00,91.4,40.5,29.26,North,0,0.0,3.1,17,0.00,,---,0.00,VWS V14.01,2013-05-31 16:02:00,
2013-05-31 12:07:00,91.9,40.9,29.26,East,80,2.7,2.7,17,0.00,,---,0.00,VWS V14.01,2013-05-31 16:07:00,
2013-05-31 12:13:00,92.1,41.1,29.26,SE,138,0.0,3.6,17,0.00,,---,0.00,VWS V14.01,2013-05-31 16:13:00,
2013-05-31 12:18:00,92.1,41.1,29.26,NE,50,0.0,0.0,17,0.00,,---,0.00,VWS V14.01,2013-05-31 16:18:00,
2013-05-31 12:24:00,92.1,41.1,29.26,NE,55,4.0,4.0,17,0.00,,---,0.00,VWS V14.01,2013-05-31 16:24:00,
2013-05-31 12:29:00,92.1,41.1,29.26,NNE,15,0.0,0.0,17,0.00,,---,0.00,VWS V14.01,2013-05-31 16:29:00,
2013-05-31 12:34:00,92.1,36.1,29.26,ENE,68,0.0,0.0,14,0.00,,---,0.00,VWS V14.01,2013-05-31 16:34:00,
2013-05-31 12:40:00,92.7,36.5,29.26,NE,41,4.0,4.0,14,0.00,,---,0.00,VWS V14.01,2013-05-31 16:40:00,
2013-05-31 12:45:00,92.3,39.7,29.26,NE,46,0.0,0.0,16,0.00,,---,0.00,VWS V14.01,2013-05-31 16:45:00,
2013-05-31 12:50:00,92.3,36.3,29.26,SE,146,0.0,0.0,14,0.00,,---,0.00,VWS V14.01,2013-05-31 16:50:00,
2013-05-31 12:55:00,92.5,36.4,29.26,ESE,112,0.0,2.7,14,0.00,,---,0.00,VWS V14.01,2013-05-31 16:55:00,
2013-05-31 13:00:00,92.7,36.5,29.26,NE,49,0.0,2.7,14,0.00,,---,0.00,VWS V14.01,2013-05-31 17:00:00,
2013-05-31 13:05:00,92.7,36.5,29.26,ENE,63,0.0,0.0,14,0.00,,---,0.00,VWS V14.01,2013-05-31 17:05:00,
2013-05-31 13:11:00,91.6,35.7,29.26,North,0,0.0,0.0,14,0.00,,---,0.00,VWS V14.01,2013-05-31 17:11:00,
2013-05-31 13:16:00,91.6,40.7,29.26,East,95,0.0,2.7,17,0.00,,---,0.00,VWS V14.01,2013-05-31 17:16:00,
2013-05-31 13:21:00,91.6,40.7,29.26,SSW,196,0.0,2.7,17,0.00,,---,0.00,VWS V14.01,2013-05-31 17:21:00,
2013-05-31 13:26:00,90.9,40.1,29.26,ENE,75,0.0,0.0,17,0.00,,---,0.00,VWS V14.01,2013-05-31 17:26:00,
2013-05-31 13:31:00,90.0,39.3,29.23,NE,50,0.0,0.0,17,0.00,,---,0.00,VWS V14.01,2013-05-31 17:31:00,
2013-05-31 13:36:00,89.1,40.1,29.23,NE,50,0.0,0.0,18,0.00,,---,0.00,VWS V14.01,2013-05-31 17:36:00,
2013-05-31 13:41:00,88.2,39.4,29.23,ENE,59,0.0,0.0,18,0.00,,---,0.00,VWS V14.01,2013-05-31 17:41:00,
2013-05-31 13:46:00,87.6,40.3,29.23,ENE,59,0.0,0.0,19,0.00,,---,0.00,VWS V14.01,2013-05-31 17:46:00,
2013-05-31 13:51:00,87.1,39.9,29.23,ENE,74,0.0,0.0,19,0.00,,---,0.00,VWS V14.01,2013-05-31 17:51:00,
2013-05-31 13:56:00,86.4,40.6,29.23,NE,39,0.0,0.0,20,0.00,,---,0.00,VWS V14.01,2013-05-31 17:56:00,
2013-05-31 14:01:00,86.4,43.1,29.23,NE,44,0.0,3.1,22,0.00,,---,0.00,VWS V14.01,2013-05-31 18:01:00,
2013-05-31 14:06:00,85.8,41.4,29.23,NNE,33,0.0,0.0,21,0.00,,---,0.00,VWS V14.01,2013-05-31 18:06:00,
2013-05-31 14:11:00,85.6,42.5,29.23,NNW,341,0.0,0.0,22,0.00,,---,0.00,VWS V14.01,2013-05-31 18:11:00,
2013-05-31 14:16:00,85.5,49.6,29.23,NNE,22,0.0,0.0,29,0.00,,---,0.00,VWS V14.01,2013-05-31 18:16:00,
2013-05-31 14:21:00,85.1,42.0,29.23,NE,51,0.0,0.0,22,0.00,,---,0.00,VWS V14.01,2013-05-31 18:21:00,
2013-05-31 14:27:00,84.7,48.1,29.23,NE,51,0.0,0.0,28,0.00,,---,0.00,VWS V14.01,2013-05-31 18:27:00,
2013-05-31 14:32:00,84.6,48.8,29.23,NNE,32,0.0,0.0,29,0.00,,---,0.00,VWS V14.01,2013-05-31 18:32:00,
2013-05-31 14:37:00,84.6,49.8,29.23,NNE,32,0.0,0.0,30,0.00,,---,0.00,VWS V14.01,2013-05-31 18:37:00,
2013-05-31 14:42:00,84.9,49.2,29.23,ENE,58,0.0,0.0,29,0.00,,---,0.00,VWS V14.01,2013-05-31 18:42:00,
2013-05-31 14:47:00,85.3,43.3,29.23,NE,45,0.0,2.7,23,0.00,,---,0.00,VWS V14.01,2013-05-31 18:47:00,
2013-05-31 14:52:00,85.6,41.3,29.23,WNW,286,0.0,0.0,21,0.00,,---,0.00,VWS V14.01,2013-05-31 18:52:00,
2013-05-31 14:57:00,85.5,38.5,29.23,ESE,106,0.0,0.0,19,0.00,,---,0.00,VWS V14.01,2013-05-31 18:57:00,
2013-05-31 15:02:00,85.8,42.6,29.23,NE,56,0.0,3.6,22,0.00,,---,0.00,VWS V14.01,2013-05-31 19:02:00,
2013-05-31 15:07:00,85.3,41.0,29.23,East,93,0.0,6.7,21,0.00,,---,0.00,VWS V14.01,2013-05-31 19:07:00,
2013-05-31 15:12:00,85.6,40.0,29.23,North,9,0.0,8.3,20,0.00,,---,0.00,VWS V14.01,2013-05-31 19:12:00,
2013-05-31 15:17:00,86.4,41.9,29.23,NNE,27,0.0,0.0,21,0.00,,---,0.00,VWS V14.01,2013-05-31 19:17:00,
2013-05-31 15:22:00,86.0,39.0,29.23,NE,54,0.0,3.1,19,0.00,,---,0.00,VWS V14.01,2013-05-31 19:22:00,
2013-05-31 15:27:00,85.6,40.0,29.23,NNW,335,0.0,3.6,20,0.00,,---,0.00,VWS V14.01,2013-05-31 19:27:00,
2013-05-31 15:32:00,85.1,40.8,29.23,South,191,2.7,6.7,21,0.00,,---,0.00,VWS V14.01,2013-05-31 19:32:00,
2013-05-31 15:37:00,85.5,39.9,29.23,SE,134,0.0,4.9,20,0.00,,---,0.00,VWS V14.01,2013-05-31 19:37:00,
2013-05-31 15:42:00,85.5,39.9,29.23,North,2,5.8,5.8,20,0.00,,---,0.00,VWS V14.01,2013-05-31 19:42:00,
2013-05-31 15:47:00,85.3,41.0,29.23,NNE,33,0.0,0.0,21,0.00,,---,0.00,VWS V14.01,2013-05-31 19:47:00,
2013-05-31 15:52:00,85.5,41.1,29.23,NE,48,0.0,3.1,21,0.00,,---,0.00,VWS V14.01,2013-05-31 19:52:00,
2013-05-31 15:57:00,85.5,42.3,29.23,East,92,0.0,3.1,22,0.00,,---,0.00,VWS V14.01,2013-05-31 19:57:00,
2013-05-31 16:02:00,85.3,41.0,29.21,ENE,65,0.0,2.7,21,0.00,,---,0.00,VWS V14.01,2013-05-31 20:02:00,
2013-05-31 16:08:00,84.9,45.2,29.21,NW,316,0.0,3.1,25,0.00,,---,0.00,VWS V14.01,2013-05-31 20:08:00,
2013-05-31 16:13:00,84.4,41.4,29.21,East,84,0.0,4.0,22,0.00,,---,0.00,VWS V14.01,2013-05-31 20:13:00,
2013-05-31 16:18:00,84.6,41.6,29.21,WSW,256,0.0,2.7,22,0.00,,---,0.00,VWS V14.01,2013-05-31 20:18:00,
2013-05-31 16:23:00,84.4,43.7,29.21,East,84,0.0,0.0,24,0.00,,---,0.00,VWS V14.01,2013-05-31 20:23:00,
2013-05-31 16:28:00,84.2,42.4,29.21,ESE,102,0.0,0.0,23,0.00,,---,0.00,VWS V14.01,2013-05-31 20:28:00,
2013-05-31 16:33:00,83.8,43.2,29.21,NNW,334,0.0,3.1,24,0.00,,---,0.00,VWS V14.01,2013-05-31 20:33:00,
2013-05-31 16:38:00,83.8,42.1,29.21,SSE,157,0.0,4.5,23,0.00,,---,0.00,VWS V14.01,2013-05-31 20:38:00,
2013-05-31 16:43:00,83.8,43.2,29.21,North,0,0.0,0.0,24,0.00,,---,0.00,VWS V14.01,2013-05-31 20:43:00,
2013-05-31 16:48:00,83.5,41.8,29.21,ESE,119,0.0,3.1,23,0.00,,---,0.00,VWS V14.01,2013-05-31 20:48:00,
2013-05-31 16:53:00,83.3,43.8,29.21,NE,45,2.7,5.4,25,0.00,,---,0.00,VWS V14.01,2013-05-31 20:53:00,
2013-05-31 16:58:00,83.5,42.9,29.21,ENE,75,0.0,0.0,24,0.00,,---,0.00,VWS V14.01,2013-05-31 20:58:00,
2013-05-31 17:03:00,83.5,46.0,29.21,NE,51,0.0,3.1,27,0.00,,---,0.00,VWS V14.01,2013-05-31 21:03:00,
2013-05-31 17:08:00,83.3,43.8,29.21,East,95,0.0,0.0,25,0.00,,---,0.00,VWS V14.01,2013-05-31 21:08:00,
2013-05-31 17:13:00,83.3,44.9,29.21,South,189,0.0,3.1,26,0.00,,---,0.00,VWS V14.01,2013-05-31 21:13:00,
2013-05-31 17:19:00,83.1,43.7,29.21,South,189,0.0,2.7,25,0.00,,---,0.00,VWS V14.01,2013-05-31 21:19:00,
2013-05-31 17:24:00,82.9,45.6,29.21,ENE,67,0.0,3.6,27,0.00,,---,0.00,VWS V14.01,2013-05-31 21:24:00,
2013-05-31 17:29:00,82.8,45.4,29.21,SE,135,0.0,0.0,27,0.00,,---,0.00,VWS V14.01,2013-05-31 21:29:00,
2013-05-31 17:34:00,82.8,44.4,29.21,South,170,0.0,6.9,26,0.00,,---,0.00,VWS V14.01,2013-05-31 21:34:00,
2013-05-31 17:39:00,82.8,45.4,29.21,East,101,4.0,5.4,27,0.00,,---,0.00,VWS V14.01,2013-05-31 21:39:00,
2013-05-31 17:45:00,82.6,46.2,29.21,East,83,0.0,0.0,28,0.00,,---,0.00,VWS V14.01,2013-05-31 21:45:00,
2013-05-31 17:50:00,82.6,46.2,29.21,South,185,5.4,5.4,28,0.00,,---,0.00,VWS V14.01,2013-05-31 21:50:00,
2013-05-31 17:55:00,82.4,44.1,29.21,NW,324,0.0,0.0,26,0.00,,---,0.00,VWS V14.01,2013-05-31 21:55:00,
2013-05-31 18:01:00,82.4,44.1,29.18,North,351,0.0,4.0,26,0.00,,---,0.00,VWS V14.01,2013-05-31 22:01:00,
2013-05-31 18:06:00,82.0,45.8,29.18,South,177,0.0,4.0,28,0.00,,---,0.00,VWS V14.01,2013-05-31 22:06:00,
2013-05-31 18:11:00,81.7,43.5,29.18,East,86,0.0,5.8,26,0.00,,---,0.00,VWS V14.01,2013-05-31 22:11:00,
2013-05-31 18:16:00,81.9,43.7,29.18,ESE,103,4.0,4.0,26,0.00,,---,0.00,VWS V14.01,2013-05-31 22:16:00,
2013-05-31 18:21:00,81.7,44.5,29.18,ENE,68,0.0,0.0,27,0.00,,---,0.00,VWS V14.01,2013-05-31 22:21:00,
2013-05-31 18:26:00,81.3,46.1,29.18,East,90,0.0,3.6,29,0.00,,---,0.00,VWS V14.01,2013-05-31 22:26:00,
2013-05-31 18:31:00,81.0,46.6,29.18,ENE,63,0.0,3.1,30,0.00,,---,0.00,VWS V14.01,2013-05-31 22:31:00,
2013-05-31 18:36:00,80.4,46.2,29.18,SE,130,0.0,0.0,30,0.00,,---,0.00,VWS V14.01,2013-05-31 22:36:00,
2013-05-31 18:41:00,80.2,46.0,29.18,NW,314,0.0,0.0,30,0.00,,---,0.00,VWS V14.01,2013-05-31 22:41:00,
2013-05-31 18:46:00,79.9,45.7,29.18,NW,307,0.0,0.0,30,0.00,,---,0.00,VWS V14.01,2013-05-31 22:46:00,
2013-05-31 18:51:00,79.5,46.3,29.18,East,89,0.0,0.0,31,0.00,,---,0.00,VWS V14.01,2013-05-31 22:51:00,
2013-05-31 18:56:00,79.2,46.0,29.18,North,351,0.0,0.0,31,0.00,,---,0.00,VWS V14.01,2013-05-31 22:56:00,
2013-05-31 19:01:00,79.0,45.8,29.18,North,5,0.0,3.1,31,0.00,,---,0.00,VWS V14.01,2013-05-31 23:01:00,
2013-05-31 19:06:00,78.6,45.5,29.18,NE,44,2.7,2.7,31,0.00,,---,0.00,VWS V14.01,2013-05-31 23:06:00,
2013-05-31 19:11:00,78.6,45.5,29.18,NE,51,0.0,0.0,31,0.00,,---,0.00,VWS V14.01,2013-05-31 23:11:00,
2013-05-31 19:16:00,78.3,45.2,29.18,ENE,76,0.0,0.0,31,0.00,,---,0.00,VWS V14.01,2013-05-31 23:16:00,
2013-05-31 19:21:00,77.9,45.7,29.18,ENE,76,0.0,0.0,32,0.00,,---,0.00,VWS V14.01,2013-05-31 23:21:00,
2013-05-31 19:26:00,77.7,45.5,29.18,ENE,67,0.0,0.0,32,0.00,,---,0.00,VWS V14.01,2013-05-31 23:26:00,
2013-05-31 19:31:00,77.4,45.2,29.18,ENE,67,0.0,0.0,32,0.00,,---,0.00,VWS V14.01,2013-05-31 23:31:00,
2013-05-31 19:36:00,77.0,44.9,29.18,ENE,67,0.0,0.0,32,0.00,,---,0.00,VWS V14.01,2013-05-31 23:36:00,
2013-05-31 19:41:00,76.8,45.6,29.18,ENE,67,0.0,0.0,33,0.00,,---,0.00,VWS V14.01,2013-05-31 23:41:00,
2013-05-31 19:46:00,76.5,45.2,29.18,ENE,67,0.0,0.0,33,0.00,,---,0.00,VWS V14.01,2013-05-31 23:46:00,
2013-05-31 19:51:00,76.1,45.7,29.18,East,93,0.0,0.0,34,0.00,,---,0.00,VWS V14.01,2013-05-31 23:51:00,
2013-05-31 19:56:00,75.9,45.6,29.18,East,93,0.0,0.0,34,0.00,,---,0.00,VWS V14.01,2013-05-31 23:56:00,
2013-05-31 20:01:00,75.7,45.4,29.18,East,93,0.0,0.0,34,0.00,,---,0.00,VWS V14.01,2013-06-01 00:01:00,
2013-05-31 20:06:00,75.4,45.1,29.18,ESE,119,0.0,0.0,34,0.00,,---,0.00,VWS V14.01,2013-06-01 00:06:00,
2013-05-31 20:11:00,75.2,45.7,29.18,ESE,119,0.0,0.0,35,0.00,,---,0.00,VWS V14.01,2013-06-01 00:11:00,
2013-05-31 20:16:00,74.8,45.4,29.18,SSE,152,0.0,0.0,35,0.00,,---,0.00,VWS V14.01,2013-06-01 00:16:00,
2013-05-31 20:21:00,74.7,46.0,29.18,SSE,152,0.0,0.0,36,0.00,,---,0.00,VWS V14.01,2013-06-01 00:21:00,
2013-05-31 20:26:00,74.5,45.8,29.18,South,181,0.0,0.0,36,0.00,,---,0.00,VWS V14.01,2013-06-01 00:26:00,
2013-05-31 20:31:00,74.3,45.7,29.18,South,180,0.0,0.0,36,0.00,,---,0.00,VWS V14.01,2013-06-01 00:31:00,
2013-05-31 20:36:00,74.1,46.2,29.18,NE,35,0.0,0.0,37,0.00,,---,0.00,VWS V14.01,2013-06-01 00:36:00,
2013-05-31 20:41:00,73.9,46.0,29.18,NE,35,0.0,0.0,37,0.00,,---,0.00,VWS V14.01,2013-06-01 00:41:00,
2013-05-31 20:46:00,73.8,45.2,29.18,SE,140,0.0,0.0,36,0.00,,---,0.00,VWS V14.01,2013-06-01 00:46:00,
2013-05-31 20:51:00,73.8,45.9,29.18,SE,140,0.0,0.0,37,0.00,,---,0.00,VWS V14.01,2013-06-01 00:51:00,
2013-05-31 20:57:00,73.6,45.7,29.18,SE,140,0.0,0.0,37,0.00,,---,0.00,VWS V14.01,2013-06-01 00:57:00,
2013-05-31 21:02:00,73.4,45.6,29.18,SE,140,0.0,0.0,37,0.00,,---,0.00,VWS V14.01,2013-06-01 01:02:00,
2013-05-31 21:07:00,73.4,45.6,29.18,SE,140,0.0,0.0,37,0.00,,---,0.00,VWS V14.01,2013-06-01 01:07:00,
2013-05-31 21:12:00,73.4,45.6,29.18,SE,140,0.0,0.0,37,0.00,,---,0.00,VWS V14.01,2013-06-01 01:12:00,
2013-05-31 21:17:00,73.2,45.4,29.21,SE,140,0.0,0.0,37,0.00,,---,0.00,VWS V14.01,2013-06-01 01:17:00,
2013-05-31 21:22:00,73.2,45.4,29.21,SE,140,0.0,0.0,37,0.00,,---,0.00,VWS V14.01,2013-06-01 01:22:00,
2013-05-31 21:27:00,73.0,45.2,29.21,SE,140,0.0,0.0,37,0.00,,---,0.00,VWS V14.01,2013-06-01 01:27:00,
2013-05-31 21:32:00,73.0,46.0,29.21,SE,140,0.0,0.0,38,0.00,,---,0.00,VWS V14.01,2013-06-01 01:32:00,
2013-05-31 21:37:00,72.9,45.8,29.21,SE,140,0.0,0.0,38,0.00,,---,0.00,VWS V14.01,2013-06-01 01:37:00,
2013-05-31 21:42:00,72.9,45.8,29.21,SE,140,0.0,0.0,38,0.00,,---,0.00,VWS V14.01,2013-06-01 01:42:00,
2013-05-31 21:47:00,72.9,45.8,29.21,SE,140,0.0,0.0,38,0.00,,---,0.00,VWS V14.01,2013-06-01 01:47:00,
2013-05-31 21:52:00,72.9,45.8,29.21,SE,140,0.0,0.0,38,0.00,,---,0.00,VWS V14.01,2013-06-01 01:52:00,
2013-05-31 21:57:00,72.9,45.8,29.21,SE,140,0.0,0.0,38,0.00,,---,0.00,VWS V14.01,2013-06-01 01:57:00,
2013-05-31 22:02:00,72.9,45.8,29.21,SE,140,0.0,0.0,38,0.00,,---,0.00,VWS V14.01,2013-06-01 02:02:00,
2013-05-31 22:07:00,72.9,45.8,29.21,SE,140,0.0,0.0,38,0.00,,---,0.00,VWS V14.01,2013-06-01 02:07:00,
2013-05-31 22:12:00,72.7,45.6,29.21,SE,140,0.0,0.0,38,0.00,,---,0.00,VWS V14.01,2013-06-01 02:12:00,
2013-05-31 22:17:00,72.7,45.6,29.21,SE,140,0.0,0.0,38,0.00,,---,0.00,VWS V14.01,2013-06-01 02:17:00,
2013-05-31 22:22:00,72.5,46.2,29.21,SE,140,0.0,0.0,39,0.00,,---,0.00,VWS V14.01,2013-06-01 02:22:00,
2013-05-31 22:27:00,72.3,46.0,29.21,SE,140,0.0,0.0,39,0.00,,---,0.00,VWS V14.01,2013-06-01 02:27:00,
2013-05-31 22:32:00,72.3,46.0,29.21,SE,140,0.0,0.0,39,0.00,,---,0.00,VWS V14.01,2013-06-01 02:32:00,
2013-05-31 22:37:00,72.3,46.0,29.21,SE,140,0.0,0.0,39,0.00,,---,0.00,VWS V14.01,2013-06-01 02:37:00,
2013-05-31 22:42:00,72.3,46.0,29.21,SE,140,0.0,0.0,39,0.00,,---,0.00,VWS V14.01,2013-06-01 02:42:00,
2013-05-31 22:47:00,72.1,45.8,29.21,SE,140,0.0,0.0,39,0.00,,---,0.00,VWS V14.01,2013-06-01 02:47:00,
2013-05-31 22:52:00,72.1,45.8,29.21,SE,140,0.0,0.0,39,0.00,,---,0.00,VWS V14.01,2013-06-01 02:52:00,
2013-05-31 22:57:00,72.0,45.7,29.21,SE,140,0.0,0.0,39,0.00,,---,0.00,VWS V14.01,2013-06-01 02:57:00,
2013-05-31 23:02:00,72.0,45.7,29.21,SE,140,0.0,0.0,39,0.00,,---,0.00,VWS V14.01,2013-06-01 03:02:00,
2013-05-31 23:07:00,71.8,45.5,29.21,SE,140,0.0,0.0,39,0.00,,---,0.00,VWS V14.01,2013-06-01 03:07:00,
2013-05-31 23:12:00,71.6,45.4,29.21,SE,140,0.0,0.0,39,0.00,,---,0.00,VWS V14.01,2013-06-01 03:12:00,
2013-05-31 23:17:00,71.6,45.4,29.21,SE,140,0.0,0.0,39,0.00,,---,0.00,VWS V14.01,2013-06-01 03:17:00,
2013-05-31 23:22:00,71.6,45.4,29.21,SE,140,0.0,0.0,39,0.00,,---,0.00,VWS V14.01,2013-06-01 03:22:00,
2013-05-31 23:27:00,71.6,45.4,29.21,SE,140,0.0,0.0,39,0.00,,---,0.00,VWS V14.01,2013-06-01 03:27:00,
2013-05-31 23:32:00,71.6,45.4,29.21,SE,140,0.0,0.0,39,0.00,,---,0.00,VWS V14.01,2013-06-01 03:32:00,
2013-05-31 23:37:00,71.6,45.4,29.21,SE,140,0.0,0.0,39,0.00,,---,0.00,VWS V14.01,2013-06-01 03:37:00,
2013-05-31 23:42:00,71.4,45.2,29.21,ENE,71,0.0,0.0,39,0.00,,---,0.00,VWS V14.01,2013-06-01 03:42:00,
2013-05-31 23:47:00,71.4,44.5,29.21,ENE,70,0.0,0.0,38,0.00,,---,0.00,VWS V14.01,2013-06-01 03:47:00,
2013-05-31 23:52:00,71.4,44.5,29.21,ENE,70,0.0,0.0,38,0.00,,---,0.00,VWS V14.01,2013-06-01 03:52:00,
2013-05-31 23:57:00,71.4,44.5,29.21,ESE,105,0.0,0.0,38,0.00,,---,0.00,VWS V14.01,2013-06-01 03:57:00,